Showing default

COSMOS 1994, 19785

Orbit data source: Space-Track

COSMOS 1994, 19785 is a payload satellite owned by UNKS (CIS) in LEO that was launched on Fri, 10 Feb 1989 UTC via a TSIKLON-3 launch vehicle from the Plesetsk Missile And Space Complex (PKMTR). Payload-class satellites include a variety of spacecraft equipped with specific instruments for various scientific and technological missions. These include communications satellites like Starlink; space stations such as the ISS; scientific satellites like the Hubble; Earth observation satellites from companies like Planet Labs, Umbra, and HawkEye 360; GPS; miniature CubeSats for education and research; and military/defense satellites.

Loading next visibility...
Identifier
19785, 1989-009A
Orbit
LEO
Country
Flag of CISCIS
Related business
Manufacturer
NPO PM
Mission
Defense Communications
Bus & Motor
STRELA-3, Unknown motor
Mass
225 kg wet, 225 kg dry
Launch date (UTC)
1989-02-10 (38 years ago)
Launch vehicle
TSIKLON-3
Launch site
Plesetsk Missile And Space Complex (PKMTR)
Object type
Payload
Rocket body
Debris
Shape & HBR
Cyl, 0.9 m
Radar Cross Section
1.257 m², Large (>1 m²)

Expand to show TLE details & history
Last TLE update: 1 day ago

TLE from 1 day ago
0 COSMOS 1994
1 19785U 89009A   26262.03800514  .00000016  00000-0  27416-4 0  9996
2 19785  82.6179 292.0225 0014115  96.1032 290.1143 12.64344359735242
Epoch: 2026-09-19T00:54Z
TLE epoch observation values (Epoch: 2026-09-19T00:54:43.644Z)
Latitude
25.86354°
Longitude
-76.0284°
Altitude
1,404.297 km
Speed
7.162 km/s
True Right ascension
19h 42m 25s
True Declination
25° 44' 24"
Sunlit
Object was in daylight at epoch
Visualization orbit readout
Latitude
Unknown
Longitude
Unknown
Altitude
Unknown
Speed
Unknown
Apparent Right ascension
Unknown
Apparent Declination
Unknown
Sunlit
N/A
Visualization observer readout
Local Sidereal Time
18:20:37
Azimuth
Unknown
Elevation
Unknown
Doppler factor
Unknown
Orbital elements
Apogee altitude
1,413.363 km
Perigee altitude
1,391.398 km
Semi-major axis
7,780.518 km
Eccentricity
0.00141
Inclination
82.6179°
RAAN
292.0225°
Arg. of periapsis
96.1032°
True anomaly
289.96233°
Mean anomaly
290.1143°
Eccentric anomaly
290.03832°
Mean motion
3.1625 °/min
Orbital period
113.83 mins
BSTAR
0.000027416
Loading maneuver chart data...
Computing Atmospheric mass density...
Loading historical data...
Loading historical data...
Loading historical data...
Loading historical data...
Loading historical data...
Loading historical data...
Loading historical data...

Documentation

Showing up to 5 results
|